Wind_Gust
9 20 20 21 21 23 14 12 13 14 16 15 12 13 17 17 20 12 15 11 9 17 21 21 23 25 23 24 22 22 21 22 23 22 21 21 21 21 21 21 21 20 21 19 20 20 21 23 23 21 19 19 18 17 17 17 16 14 15 13 13 12 9 7 6 9 10 11 11 11 13 14 13 13 9 9 9 10 11 10 12 10 10 10 11 11
14 21 21 13 19 18 13 7 9 13 11 15 17 18 21 22 22 19 16 13 10 15 22 22 26 27 26 23 24 22 25 25 24 25 25 24 23 23 23 23 22 22 22 22 19 20 20 25 22 21 20 18 20 19 18 18 17 15 14 14 14 13 11 9 7 9 8 10 12 12 14 13 14 15 14 12 10 9 8 9 9 9 10 10 10 9
21 22 17 15 13 12 7 10 10 13 13 14 20 20 21 22 19 16 10 12 13 15 23 24 27 25 24 25 25 24 23 24 26 26 25 26 26 26 26 25 24 22 22 21 21 17 21 21 24 24 20 20 19 18 19 17 17 16 16 14 14 13 13 12 10 9 10 8 9 10 11 11 12 11 11 10 10 8 9 7 7 8 9 11 13 11
21 26 16 13 12 9 10 11 12 13 16 16 19 22 22 16 14 18 21 9 12 19 19 19 24 23 20 22 25 27 29 28 23 24 25 25 26 25 23 20 19 20 23 23 18 21 22 23 24 24 22 20 19 18 18 17 18 18 16 15 14 14 13 14 12 10 10 8 8 8 7 8 9 9 8 7 8 7 8 9 8 12 12 13 13 15
15 21 13 14 11 13 15 13 14 16 20 18 18 20 22 11 16 21 17 11 7 15 17 20 24 29 27 28 30 27 28 27 27 27 27 27 25 23 21 22 21 19 18 19 20 21 21 23 24 25 23 21 20 19 18 17 19 17 17 16 16 16 14 14 14 12 11 12 12 12 12 10 10 9 9 9 10 10 10 8 8 9 10 12 13 13
19 14 15 12 13 15 14 17 17 17 16 20 20 16 15 14 12 11 11 15 18 19 22 17 23 28 25 29 28 24 30 30 28 28 28 26 27 26 26 24 22 18 16 17 19 22 22 23 23 24 23 22 21 21 19 17 18 17 17 16 17 16 15 15 14 13 11 8 7 6 7 8 8 8 9 11 10 10 10 12 8 8 9 11 11 12
16 11 10 12 14 15 17 19 17 17 21 12 21 18 11 14 12 12 13 17 21 21 22 17 20 19 15 19 21 19 18 20 20 24 26 27 26 26 25 23 22 21 21 18 17 20 22 22 22 23 23 23 22 20 19 18 17 18 17 16 18 16 16 15 14 13 11 10 10 8 8 8 8 8 10 8 7 7 8 8 9 10 7 9 10 11
19 15 13 11 14 17 19 22 20 16 19 22 19 14 10 14 15 15 16 19 24 13 18 19 21 20 21 20 19 21 19 19 20 20 22 24 23 23 22 22 20 23 21 20 20 19 20 21 22 23 23 23 22 19 19 18 18 18 18 17 19 17 16 15 14 13 10 10 9 9 8 8 8 8 9 7 7 7 6 8 9 10 10 9 10 10
13 14 14 16 15 22 22 21 11 19 23 16 11 12 14 15 15 17 19 20 22 16 20 22 20 23 24 20 15 16 19 20 20 21 21 22 22 21 21 22 22 21 21 21 21 20 21 21 22 22 23 22 22 21 19 20 19 18 18 19 18 17 16 16 15 14 12 9 9 10 9 8 10 9 8 9 8 7 7 7 8 9 10 10 10 10
12 15 16 15 18 22 21 21 15 13 23 11 9 11 15 14 15 17 21 21 21 19 21 21 20 26 21 17 21 18 20 20 21 21 21 21 21 21 22 20 20 21 20 21 22 21 20 20 22 21 22 22 21 18 19 19 18 18 18 19 19 17 17 17 16 15 13 11 11 10 8 9 9 8 9 6 8 7 6 6 7 8 9 10 9 10
13 9 8 17 21 22 15 10 10 15 15 11 12 17 19 20 21 20 22 23 24 27 27 23 20 24 25 16 15 22 27 16 15 18 20 20 20 20 18 20 21 21 23 23 22 22 21 20 21 22 23 22 18 17 20 19 19 18 19 19 20 19 18 18 17 16 15 13 11 11 11 10 9 9 8 9 9 8 7 7 7 8 9 9 10 9
20 17 19 23 20 20 12 15 15 16 15 16 20 22 20 22 20 21 22 20 24 27 25 25 23 20 23 21 21 16 16 15 13 15 17 19 21 20 18 21 21 21 22 23 23 23 22 22 22 21 20 20 21 20 20 19 19 19 20 20 21 20 19 18 18 17 16 15 12 10 11 11 10 10 11 9 9 8 8 8 8 8 9 9 10 9
23 24 18 20 20 22 21 21 22 20 19 22 21 23 24 24 23 27 25 27 29 27 21 17 18 22 30 26 24 13 15 15 15 18 17 19 20 20 21 21 21 21 21 23 24 23 24 23 22 22 22 21 21 21 21 21 20 20 20 20 21 21 20 19 18 17 17 15 14 13 12 11 12 11 10 9 9 9 10 10 8 8 10 9 10 9
21 23 22 21 19 23 21 25 21 22 23 23 27 23 25 27 26 25 27 27 30 29 26 20 16 28 18 20 21 23 17 17 17 18 15 16 18 18 20 21 23 22 23 24 24 25 25 25 24 24 24 24 23 22 22 21 20 19 19 20 21 21 21 19 19 19 18 17 16 14 13 13 13 12 11 10 10 10 9 9 9 10 10 11 10 11
19 19 24 20 21 19 27 27 22 17 19 26 23 29 25 27 32 26 27 25 25 22 14 11 14 17 11 11 14 21 20 17 19 21 19 18 18 17 19 20 20 23 23 25 25 24 24 25 23 23 23 22 23 21 20 20 20 19 19 21 22 22 23 21 20 19 19 18 17 15 14 14 13 12 12 11 10 10 10 9 10 11 11 12 12 12
23 28 15 20 13 17 22 22 23 24 25 24 23 26 29 27 20 33 27 28 28 25 18 19 25 10 21 13 12 12 16 18 19 22 22 22 22 20 20 21 22 20 21 23 22 23 21 23 23 22 21 20 20 21 19 19 19 19 19 19 21 21 22 22 20 19 20 18 17 16 15 14 12 12 11 11 10 10 9 10 11 11 12 13 13 12
21 26 11 17 12 19 19 18 24 20 27 13 22 32 29 21 25 28 25 28 21 27 39 28 25 30 24 31 27 23 23 23 22 23 24 24 24 21 21 22 22 23 25 24 24 23 21 21 22 23 21 20 19 19 20 20 20 20 19 19 20 20 20 21 21 19 18 18 17 17 15 14 13 12 11 10 9 10 10 11 12 12 12 11 13 14
23 26 13 16 18 18 20 20 20 19 25 30 30 23 21 22 21 27 31 22 27 32 31 21 24 24 28 33 23 29 29 26 26 25 26 24 23 24 23 22 22 24 24 23 23 22 22 22 23 23 22 21 20 20 18 19 17 18 19 19 20 20 22 23 21 20 19 18 18 17 16 15 14 13 12 11 11 11 12 12 12 12 13 13 12 13
14 29 26 24 26 24 15 15 24 26 26 32 31 20 27 25 26 24 27 29 31 33 34 26 28 32 32 33 25 24 22 24 25 24 25 26 26 24 23 22 21 21 22 23 23 24 23 23 23 23 22 23 22 21 16 20 19 18 17 19 20 21 22 23 22 20 20 19 17 17 16 16 15 13 12 12 12 12 12 13 13 13 13 14 15 16
14 22 28 20 25 18 19 22 28 24 22 24 21 30 25 30 33 33 30 26 31 32 28 28 33 38 30 30 26 29 26 23 23 24 25 25 25 24 22 21 21 21 21 23 24 24 24 24 23 24 23 23 22 17 19 21 21 20 18 18 18 18 20 21 21 21 20 20 18 16 16 15 16 14 14 13 13 14 14 13 14 13 13 15 18 18
19 15 31 23 21 17 30 26 28 26 26 27 29 30 28 34 24 30 29 34 35 35 35 36 38 34 29 22 22 24 27 28 21 23 24 25 24 24 22 19 19 21 22 22 23 24 24 23 23 23 23 26 22 22 20 20 19 20 19 19 20 21 23 23 22 22 20 20 18 17 16 15 14 13 13 13 14 14 14 14 14 15 17 19 20 20
20 18 26 28 29 32 31 24 24 26 24 23 26 27 23 25 26 30 33 29 38 41 38 36 43 34 26 20 21 21 21 23 25 24 23 22 23 22 21 18 19 20 20 21 21 20 21 22 24 24 26 24 21 24 20 21 20 20 19 20 20 21 23 23 24 22 21 19 18 17 16 15 14 14 14 13 14 15 15 16 16 17 19 20 21 21
16 18 25 28 30 31 29 28 27 28 29 30 27 31 27 26 30 33 36 32 30 37 34 36 40 37 30 25 27 23 21 24 24 22 22 23 24 23 21 21 20 20 21 22 22 23 23 21 22 25 24 20 18 19 19 19 19 20 18 19 20 22 22 23 23 22 20 19 18 17 16 15 14 14 13 14 14 15 17 16 17 17 19 21 22 22
5 19 24 32 30 31 32 30 30 29 30 33 34 33 34 38 33 37 38 28 31 26 33 34 41 42 26 21 24 23 21 23 26 25 26 25 21 22 23 22 23 24 23 23 23 23 24 23 21 23 19 22 20 17 20 19 18 18 18 18 20 21 22 23 22 22 21 19 18 17 16 15 14 14 14 14 15 15 15 17 18 20 21 22 23 25
17 13 22 27 30 29 25 25 30 28 33 33 29 21 21 24 22 22 24 24 32 31 34 36 45 37 24 23 24 24 25 27 28 29 28 30 25 25 26 25 25 25 25 26 26 25 24 24 24 25 22 23 26 25 20 19 18 18 18 18 19 20 21 22 21 21 21 20 18 17 16 15 14 14 14 14 15 15 17 17 19 21 23 23 24 23
20 20 23 26 26 28 28 20 19 17 17 20 17 20 21 24 25 26 27 26 32 28 32 38 40 30 30 29 30 30 30 31 30 29 28 29 30 30 28 27 27 27 27 27 27 26 26 26 27 23 21 24 25 24 22 18 18 19 19 18 17 20 20 21 20 20 19 19 19 17 16 14 13 13 13 14 15 15 16 18 19 19 21 23 25 25
23 22 24 27 30 34 32 30 23 24 27 31 26 27 28 26 27 28 30 32 38 30 34 33 35 34 37 36 37 36 34 31 35 34 35 33 31 30 27 29 29 30 30 30 28 29 27 25 25 23 22 22 19 16 18 20 21 21 20 19 19 20 20 20 19 19 18 16 16 16 15 14 13 13 13 14 14 15 17 19 19 22 24 24 24 25
23 25 24 25 31 37 36 36 32 29 32 31 31 32 34 34 32 31 32 39 30 33 41 33 27 31 32 34 34 36 35 33 33 33 33 33 29 32 32 30 26 33 28 29 30 31 30 28 26 24 22 20 21 21 20 20 21 22 22 23 20 21 20 20 19 19 18 17 15 14 13 13 12 13 14 14 15 17 18 20 21 22 23 24 26 26
22 28 23 25 30 33 33 36 32 34 31 33 35 36 37 35 33 29 26 34 33 36 41 26 28 30 33 38 41 42 39 38 36 37 36 34 34 35 36 33 31 31 32 32 32 31 29 28 26 24 25 24 20 21 21 21 21 21 21 21 21 21 21 20 20 19 18 17 16 15 13 13 13 13 14 15 16 17 19 21 22 23 24 24 25 27
23 26 24 26 33 35 35 34 31 32 32 33 35 37 38 36 33 34 36 34 35 30 30 31 28 31 36 41 42 42 37 38 39 36 36 36 36 32 37 35 31 33 33 33 31 32 29 28 25 24 24 21 23 23 23 21 21 22 22 22 22 22 22 21 20 19 18 17 16 14 14 14 13 14 15 15 16 17 19 21 22 23 24 25 26 26
23 29 17 23 26 32 32 31 32 32 31 37 35 38 38 36 35 35 35 27 31 28 27 28 29 35 39 39 41 40 39 37 39 40 39 37 36 35 36 35 33 31 32 34 32 33 29 29 28 26 24 23 24 23 22 20 21 21 21 22 23 23 23 22 20 18 17 16 15 14 14 14 14 14 14 14 17 18 20 22 22 23 24 25 25 27
20 25 23 29 31 34 32 28 29 31 31 33 39 38 33 30 29 27 35 22 24 28 24 21 29 40 36 37 35 36 39 39 40 40 39 39 38 39 41 40 41 41 40 37 35 36 32 28 28 24 23 23 23 22 20 20 20 21 21 23 23 23 23 20 19 18 17 15 14 14 13 13 13 14 14 15 18 19 20 21 22 23 24 26 26 27
27 28 29 26 31 36 34 27 28 23 27 36 41 30 26 33 35 36 37 34 32 27 29 35 35 35 35 33 35 36 38 38 38 37 38 38 39 40 40 40 39 39 41 39 36 29 28 30 23 21 22 24 24 23 21 21 19 20 21 22 21 22 21 20 18 17 16 15 13 13 12 13 14 14 15 18 19 19 20 22 23 24 24 26 26 26
25 27 29 25 35 34 32 27 23 26 36 49 23 20 24 24 24 27 27 25 29 30 35 34 35 35 36 36 36 37 38 40 38 36 37 36 38 39 43 40 37 35 36 37 36 33 31 26 23 23 21 19 20 20 19 20 19 19 18 21 21 21 20 19 18 16 15 14 12 12 12 13 13 15 17 17 18 20 22 23 23 22 23 26 27 28
25 27 30 30 35 36 25 21 30 36 49 25 26 29 27 28 28 31 29 30 30 30 32 34 36 37 38 38 38 39 40 40 39 40 39 38 33 31 33 34 27 22 32 34 29 29 27 24 21 20 18 17 16 14 13 17 16 18 20 21 21 20 19 18 18 16 14 12 11 11 12 13 14 17 16 17 19 21 23 24 24 23 23 26 27 29
30 32 33 34 33 31 34 33 42 46 25 24 26 25 24 27 29 28 30 30 32 33 32 34 32 33 32 32 32 30 30 33 36 37 36 37 40 36 28 33 31 28 31 31 29 27 25 21 21 20 20 18 18 18 18 17 18 20 20 21 21 20 18 17 15 14 14 13 12 12 12 13 14 15 17 18 20 22 23 23 23 24 25 26 28 29
33 35 35 38 30 39 35 35 43 32 36 31 29 22 19 21 17 21 33 23 24 24 28 31 27 25 24 24 27 30 30 31 33 36 32 36 34 32 32 34 29 28 25 22 22 22 19 19 20 19 17 17 18 19 16 17 19 20 21 21 21 20 19 16 15 13 13 12 12 12 13 14 14 15 17 20 22 23 23 23 23 24 26 28 29 29
31 34 26 34 37 33 34 39 39 35 37 25 21 15 14 14 14 12 8 26 24 26 19 21 23 24 25 26 27 26 25 30 36 36 30 35 34 29 29 30 29 30 27 23 23 22 20 18 19 19 17 15 13 12 13 17 20 21 21 21 20 20 18 18 16 14 12 11 10 12 13 14 16 17 18 20 22 23 22 22 24 25 26 29 30 30
30 31 25 33 37 32 34 41 42 36 37 21 13 15 11 15 15 12 16 32 22 16 13 14 17 18 19 21 26 26 27 31 34 31 25 28 30 33 32 30 31 31 27 23 23 22 21 18 17 18 16 13 13 15 15 18 21 22 22 21 19 18 17 15 12 11 9 9 11 12 13 15 16 17 18 20 20 21 22 23 23 26 28 29 29 30
32 28 28 33 31 36 34 41 41 37 42 19 21 12 16 19 18 15 26 25 18 17 15 18 19 20 21 23 25 27 28 31 33 31 28 39 40 29 26 18 18 21 21 23 22 21 19 18 15 12 13 13 13 14 17 20 23 21 20 19 18 16 14 12 11 9 8 10 10 11 14 14 15 15 17 19 20 21 22 22 23 25 28 29 29 31
25 28 28 34 32 31 28 37 37 37 31 22 17 13 15 15 19 26 35 21 20 19 20 21 23 22 22 24 23 30 27 28 32 33 28 24 22 20 16 18 23 17 17 18 19 12 17 17 15 15 13 14 13 15 19 22 22 21 19 18 16 15 13 13 11 9 8 10 11 13 13 14 15 15 15 17 19 20 21 22 23 26 26 28 30 31
28 27 29 26 29 32 31 36 36 32 19 15 20 22 14 17 29 32 25 23 25 23 21 20 23 22 22 24 25 27 29 32 32 29 24 18 18 20 17 18 16 13 13 19 16 15 14 13 13 11 12 11 14 18 21 23 22 21 19 17 15 13 14 13 11 9 9 10 12 12 12 14 14 14 15 16 17 19 20 21 23 25 25 27 29 31
29 30 29 30 27 29 30 34 33 34 11 11 12 20 12 16 19 22 26 27 25 26 25 23 21 22 23 25 25 27 29 31 30 28 22 19 18 18 15 17 16 17 15 15 16 15 12 14 15 15 13 15 15 19 22 22 21 20 18 17 15 15 13 12 10 10 9 10 12 11 12 13 13 15 15 16 16 19 19 21 23 24 24 25 28 30
21 33 32 31 23 34 32 36 34 19 14 18 22 24 16 22 28 27 29 31 26 27 28 26 23 21 20 24 25 26 28 29 30 25 20 18 17 20 19 16 15 16 15 17 15 16 14 12 13 15 13 14 16 20 22 23 22 21 19 16 14 14 13 12 10 9 9 11 12 11 13 14 14 14 15 16 18 18 19 20 23 24 24 25 27 29
15 26 25 33 16 25 31 27 25 26 28 28 28 29 27 24 26 25 22 24 23 26 23 28 25 23 23 25 25 24 26 25 28 22 19 20 18 17 17 17 18 17 15 12 13 12 12 14 12 12 14 14 16 21 22 22 22 20 18 16 14 14 14 12 11 9 10 10 11 11 14 12 14 15 15 17 18 18 20 19 22 24 23 24 25 27
26 25 20 24 31 25 32 31 31 34 31 31 28 24 24 24 25 19 21 23 19 18 20 24 24 24 25 23 27 25 24 24 24 20 18 15 17 23 24 20 16 14 13 13 12 12 10 11 11 12 13 15 18 21 21 22 21 19 17 17 14 14 14 13 11 9 10 10 11 12 15 15 15 15 17 18 17 17 18 19 22 23 25 25 25 26
27 28 30 34 26 27 35 20 24 25 25 25 27 26 22 19 17 14 19 22 24 23 23 23 23 23 23 23 24 25 26 24 23 15 18 22 23 22 18 15 15 14 14 13 13 11 12 11 14 14 14 15 16 21 22 20 20 19 16 15 16 15 14 12 10 8 7 9 12 11 14 15 15 18 19 17 16 16 17 19 21 20 19 21 24 26
23 16 20 23 23 28 35 29 29 31 32 32 33 27 19 16 17 17 19 22 23 19 19 20 20 21 19 22 20 21 23 21 14 13 18 19 20 16 16 15 15 15 14 13 13 12 12 11 14 14 15 16 16 20 22 21 20 20 19 17 16 15 14 12 10 8 9 10 11 13 15 16 6 13 18 18 17 15 15 18 19 20 20 21 24 25
29 19 29 21 33 31 30 35 36 33 35 34 27 16 15 16 15 16 23 26 26 21 19 20 19 21 22 22 21 20 16 9 9 21 26 25 21 16 16 13 13 13 13 14 13 10 11 12 13 13 13 15 17 19 22 21 20 19 20 17 16 15 13 12 9 8 10 10 12 14 13 13 15 17 18 19 18 16 15 15 12 16 17 8 14 19
30 35 30 28 33 33 33 31 22 28 25 21 18 21 22 19 19 21 24 25 25 21 17 19 20 20 20 15 16 14 8 11 14 16 14 16 15 13 12 14 13 14 15 12 11 12 12 10 10 12 14 17 18 19 22 22 21 19 20 18 16 15 12 10 10 8 10 10 11 14 14 14 15 16 18 19 20 18 16 5 10 7 11 18 10 12
33 34 32 32 29 30 26 23 21 25 28 26 26 21 20 21 20 23 22 23 21 20 16 17 19 21 18 15 16 16 18 18 20 17 14 13 11 10 9 9 11 12 11 11 13 13 8 9 12 14 15 18 18 21 21 22 20 19 19 17 16 14 12 11 8 8 9 8 10 11 14 15 15 17 18 19 20 20 18 19 15 13 9 5 9 11
Wind_Speed
2 8 8 8 9 12 8 5 6 7 8 8 5 5 6 7 9 1 6 4 1 6 9 10 13 14 12 13 11 12 12 12 12 13 11 11 10 10 10 10 10 10 10 9 11 12 14 14 12 12 10 10 11 10 10 10 9 8 7 7 6 5 3 2 1 3 3 3 3 3 5 4 5 5 4 2 2 3 4 3 4 3 2 3 3 3
5 9 8 5 11 11 7 1 4 7 5 8 8 9 9 11 10 9 6 6 2 6 10 11 13 15 15 13 14 12 14 15 14 14 14 13 13 11 13 13 12 11 11 12 11 12 13 13 14 12 10 11 12 11 11 11 9 9 8 8 7 6 5 3 2 3 2 3 3 3 4 4 4 5 5 4 3 2 1 2 2 2 2 3 3 2
9 9 7 4 6 6 1 2 4 7 7 7 8 9 9 8 9 8 2 5 5 5 9 13 15 13 13 11 12 13 11 12 15 14 14 14 15 13 13 14 14 13 12 12 13 10 11 13 15 13 11 11 11 11 11 10 10 9 8 7 7 6 6 5 4 3 4 3 3 3 3 4 4 4 4 3 2 2 2 1 0 2 4 4 5 4
8 11 6 4 4 1 1 5 4 7 7 7 7 9 8 4 5 5 10 1 4 5 8 10 12 10 11 12 15 16 16 15 13 15 15 14 15 15 14 11 9 10 11 14 8 9 11 13 14 14 12 11 11 10 10 10 11 9 8 8 7 7 6 7 5 4 4 3 3 2 2 2 3 2 2 2 2 2 2 2 2 4 5 6 6 6
3 10 6 4 3 4 7 6 7 7 8 9 9 9 9 4 7 9 4 2 1 7 9 10 10 11 12 14 13 14 16 15 15 16 16 15 14 12 11 11 11 11 10 10 10 11 12 13 14 15 13 12 11 11 10 10 10 8 9 9 8 8 7 7 7 6 5 5 5 4 3 4 4 3 3 3 3 2 2 2 2 2 3 4 6 6
6 6 9 4 5 7 7 8 9 8 6 8 12 9 8 7 6 5 5 7 6 6 10 9 7 10 14 16 14 11 14 16 15 16 17 15 14 14 15 14 13 10 8 9 11 13 13 13 14 15 14 13 12 11 10 10 10 9 9 9 9 8 7 7 8 7 5 3 2 1 1 1 1 2 2 3 3 2 2 3 2 2 2 4 4 4
4 3 3 3 6 6 9 9 9 9 9 4 7 10 5 7 6 5 6 7 8 8 7 8 7 5 4 8 11 9 8 10 10 13 15 14 14 14 13 12 11 11 11 10 9 11 13 13 13 14 14 14 13 12 10 10 10 10 9 9 10 8 7 7 8 7 5 4 4 2 2 2 1 1 3 2 1 1 1 1 1 2 1 3 3 4
8 6 4 5 5 8 8 10 10 8 7 8 10 7 4 6 8 8 8 9 9 5 9 10 7 6 7 5 9 12 10 10 11 11 12 13 14 13 12 12 12 12 12 11 11 11 12 13 13 14 14 13 12 11 11 10 9 11 11 10 11 8 8 7 7 6 5 4 4 4 3 2 3 2 3 2 2 1 1 1 1 1 2 3 2 3
5 6 6 8 8 8 9 10 4 11 8 2 2 0 6 8 8 9 8 8 9 7 6 8 11 7 8 8 1 7 9 11 11 11 11 11 12 12 12 11 12 13 12 12 11 12 12 13 13 13 14 13 13 12 11 10 10 10 10 10 11 9 8 8 9 7 6 3 4 4 3 3 3 3 2 3 2 1 1 1 0 1 2 2 3 3
4 7 8 8 8 8 9 12 7 7 10 3 3 2 7 5 7 9 9 9 9 7 9 10 9 9 8 7 8 9 9 10 10 11 12 12 12 11 11 11 11 11 11 12 13 12 12 12 13 13 13 14 12 10 11 11 10 10 9 11 11 10 9 9 9 8 7 6 5 4 3 3 3 2 3 1 2 2 1 1 1 1 1 1 1 2
2 3 2 7 9 11 5 1 1 5 8 5 5 8 8 9 9 8 9 9 9 11 12 14 11 11 8 6 6 8 11 7 6 8 9 11 11 11 10 11 11 11 12 11 12 13 12 12 13 13 14 14 11 9 11 10 10 10 10 11 12 11 9 10 10 9 9 7 5 5 5 5 4 3 3 3 3 2 1 1 1 2 1 1 2 1
10 8 8 8 10 9 4 6 7 8 7 7 7 8 8 9 8 9 8 8 8 9 12 14 13 10 9 8 8 5 7 6 5 7 8 10 11 10 10 10 11 12 11 12 12 13 13 13 13 13 13 12 11 11 11 10 10 11 11 11 12 12 11 10 9 9 9 7 6 5 5 5 4 5 4 3 3 3 3 2 2 2 2 2 2 2
11 11 8 10 10 13 9 9 9 9 9 9 9 9 10 8 6 9 9 10 11 9 10 9 6 8 13 12 12 2 7 6 7 8 7 10 10 11 10 11 10 10 11 12 12 12 12 12 12 12 12 12 12 11 13 12 11 11 11 12 12 12 12 10 10 10 9 8 7 6 6 5 5 5 4 3 3 3 3 3 3 2 3 2 2 2
8 12 13 11 10 11 10 9 7 8 9 10 11 9 10 9 9 10 11 8 11 14 15 8 7 11 8 8 9 11 8 9 8 9 8 8 10 10 10 11 12 11 12 12 12 13 14 14 13 13 13 14 13 13 12 12 11 10 10 12 12 12 12 11 11 11 10 9 8 8 7 6 5 5 5 4 4 4 3 2 3 3 3 3 3 3
7 7 10 10 8 8 12 12 11 8 7 11 11 12 10 10 9 10 9 9 9 6 5 1 4 4 5 1 4 10 11 8 10 10 10 9 9 9 10 10 11 13 13 13 13 13 14 14 14 13 13 13 13 13 12 10 11 10 10 11 12 12 13 12 11 10 11 9 9 8 7 6 5 5 5 4 3 3 4 3 3 3 3 4 4 4
12 11 2 9 4 8 12 12 12 13 12 10 10 10 12 10 7 13 10 12 11 9 6 7 6 3 7 5 3 4 6 9 10 12 13 13 12 11 10 11 11 10 10 12 13 13 12 14 14 13 12 11 12 13 11 11 10 10 10 11 12 12 12 12 12 10 10 10 9 9 8 7 6 5 4 4 3 3 3 3 3 4 4 4 4 5
7 8 4 8 4 9 10 8 11 9 10 2 6 12 12 10 12 9 10 15 13 10 14 8 8 11 10 15 15 13 12 12 12 13 13 14 14 12 11 11 12 12 12 11 12 11 12 12 14 13 13 11 11 10 11 11 10 12 11 11 12 12 12 12 12 11 10 10 9 9 8 7 7 6 5 4 4 3 3 3 4 4 4 4 5 5
10 10 5 7 10 9 11 11 11 9 11 10 11 9 9 11 10 8 11 6 9 13 9 8 10 11 12 9 6 16 17 15 14 13 13 13 13 14 12 11 11 12 13 13 13 13 13 13 13 13 12 13 12 12 11 10 9 10 10 12 12 12 13 13 12 11 10 10 10 9 9 8 7 6 5 4 4 4 4 4 4 4 5 5 4 4
4 10 10 14 15 13 8 6 12 14 15 14 14 9 10 6 11 9 7 12 11 11 10 10 15 14 14 13 10 13 12 12 13 14 13 14 14 13 13 13 12 12 11 12 13 12 12 12 12 13 13 14 13 13 9 9 8 9 10 11 11 13 13 14 11 11 10 10 8 8 8 8 7 6 5 5 5 4 5 5 5 5 5 5 5 6
5 8 9 9 13 8 9 8 11 10 12 14 11 13 11 11 12 12 8 10 9 13 11 12 16 13 12 11 12 15 16 11 12 12 13 15 14 13 11 11 11 10 10 11 12 12 12 12 13 14 14 13 14 10 10 12 11 12 10 11 10 11 11 13 13 12 11 11 9 8 8 8 7 7 6 6 5 5 6 6 6 6 6 6 7 7
5 4 11 8 11 8 10 8 12 11 11 9 11 12 9 10 10 11 9 11 12 10 11 12 13 11 11 10 11 12 14 17 13 13 13 14 14 14 13 10 9 9 10 11 11 12 13 13 13 14 14 14 13 12 11 11 11 11 10 11 11 12 14 14 13 12 11 10 9 9 9 8 7 7 6 6 6 6 6 6 6 6 7 8 8 8
5 6 10 11 10 12 12 11 14 14 12 9 9 11 10 9 10 12 13 11 13 12 11 11 14 12 11 7 9 11 10 11 12 14 12 12 13 12 11 11 10 10 10 11 11 11 11 12 14 13 12 12 11 13 12 11 11 11 11 11 11 11 12 13 13 12 11 10 9 10 9 8 7 7 6 7 7 7 7 7 7 7 8 8 9 11
5 5 9 11 11 13 15 16 16 16 16 16 12 13 12 11 10 10 13 12 12 12 15 14 14 14 12 13 14 12 10 13 14 13 12 8 11 13 11 11 11 11 12 12 13 12 12 12 12 14 14 12 8 10 11 11 10 10 10 11 10 11 12 13 12 12 10 10 9 10 8 8 7 7 7 7 7 7 8 7 8 8 8 9 10 11
1 4 8 13 14 16 19 18 18 18 17 18 17 16 14 15 15 14 14 11 11 12 11 11 13 12 12 10 11 12 12 10 10 12 14 14 11 10 12 11 13 13 13 13 12 12 12 13 12 12 11 11 10 9 11 10 9 9 9 9 10 11 13 13 12 11 11 10 9 9 8 8 7 7 7 7 7 8 8 8 8 8 10 9 9 12
4 3 7 10 9 10 11 11 13 14 14 12 10 9 10 11 11 11 11 9 10 13 17 14 15 11 8 9 11 11 13 15 16 14 14 17 14 13 15 14 13 14 14 15 15 14 14 14 14 14 11 11 11 12 11 10 9 10 9 9 10 10 12 12 11 11 11 10 10 9 8 8 7 7 7 7 6 7 7 8 8 9 10 10 10 12
7 8 8 9 10 11 10 7 6 5 6 5 7 9 10 12 14 11 10 10 12 14 17 12 13 12 14 16 17 18 16 16 17 17 16 14 17 15 15 14 14 15 15 16 16 16 16 14 14 13 11 11 12 13 12 9 9 9 9 9 9 10 11 11 10 10 10 10 10 9 8 7 7 6 7 7 7 7 7 7 9 9 9 10 12 12
7 9 10 11 12 14 14 13 12 11 11 12 13 15 15 15 15 15 13 12 14 13 14 14 15 15 19 19 20 18 18 19 19 19 20 15 15 16 16 15 15 17 17 18 17 16 15 15 15 14 13 12 10 8 8 10 10 11 10 11 10 10 10 10 10 10 9 8 8 8 7 7 7 6 6 6 6 6 7 8 8 9 10 11 13 13
8 9 13 15 19 20 22 22 20 17 17 17 19 19 19 21 20 19 14 16 15 14 17 13 16 15 16 19 20 21 18 19 18 18 18 19 13 17 16 14 15 19 17 16 17 19 19 17 15 14 13 11 11 9 9 10 10 12 12 12 11 11 10 9 10 10 9 8 7 7 6 6 6 6 6 5 6 6 7 8 9 10 11 12 13 13
8 10 13 15 19 20 21 21 19 18 18 19 22 21 23 22 21 18 15 20 19 15 18 15 18 16 17 22 24 24 23 22 21 21 21 21 19 18 17 19 17 14 19 18 14 17 18 17 16 15 14 13 10 12 12 11 11 11 11 11 11 11 11 11 10 10 9 8 8 7 6 5 5 5 5 6 7 7 7 9 10 11 12 12 12 12
7 11 14 14 19 21 22 21 19 20 18 19 21 24 25 24 22 22 23 22 22 18 17 17 18 19 20 22 25 25 23 22 21 20 20 21 22 19 19 22 17 19 18 17 18 21 18 17 15 14 14 12 13 13 13 11 11 12 12 12 11 11 11 11 10 10 9 9 8 7 6 6 6 6 6 6 7 6 8 10 11 12 12 13 13 14
8 10 10 12 13 17 20 17 18 19 19 21 22 25 25 22 22 22 22 16 20 15 15 17 17 17 19 22 23 24 22 19 19 22 24 23 22 22 20 20 20 19 19 18 12 20 18 18 17 16 15 13 13 14 12 10 11 11 11 12 12 12 12 11 10 9 8 8 7 6 6 5 5 5 6 5 6 7 10 11 11 11 12 13 13 14
8 10 11 13 13 16 17 16 16 19 20 21 24 25 21 19 16 14 13 9 11 14 14 12 15 16 16 20 20 20 21 22 22 22 22 21 22 23 23 23 23 20 22 21 10 13 21 9 16 15 13 13 13 13 11 10 10 11 11 12 12 12 11 10 10 9 8 7 6 6 6 5 5 5 5 5 9 9 10 10 11 12 13 13 14 13
11 10 11 11 14 16 19 16 17 13 13 17 23 16 13 20 20 20 20 21 19 16 15 17 17 16 17 17 19 19 21 23 23 21 20 21 22 24 25 25 24 22 23 24 15 16 15 19 16 11 12 14 13 12 12 11 10 10 11 12 11 11 11 10 9 8 8 6 6 5 4 4 5 5 5 7 9 8 9 11 12 12 13 13 14 14
12 13 11 10 13 14 19 16 13 11 16 20 9 10 14 14 14 16 14 14 18 16 14 15 16 19 20 19 20 21 22 22 21 21 20 16 16 18 24 27 23 22 22 22 22 17 15 16 11 12 12 11 11 11 11 11 10 9 9 11 11 11 10 10 9 7 7 6 5 4 4 5 4 5 6 7 8 9 11 12 13 12 11 11 13 14
13 13 13 11 12 15 13 12 13 17 19 11 13 15 16 18 18 20 19 19 18 17 16 15 20 22 22 20 20 22 19 20 20 20 20 23 18 12 13 22 17 11 11 13 10 13 18 15 12 12 11 10 8 8 7 8 8 9 10 11 10 10 10 9 8 7 6 5 4 3 4 5 5 6 6 6 8 10 12 13 13 13 11 11 13 15
14 14 12 12 12 11 13 12 15 18 12 14 15 14 15 16 16 18 18 18 19 20 20 19 18 18 16 14 13 13 16 18 19 20 21 20 21 22 10 15 20 14 6 7 12 18 15 12 12 12 11 10 9 9 8 8 9 10 10 11 10 10 9 8 7 6 6 6 5 4 4 4 5 6 6 7 8 11 12 13 13 12 12 13 13 14
19 16 14 15 12 15 14 16 18 16 19 19 14 9 6 8 6 6 11 11 14 11 13 16 16 14 12 13 13 13 14 15 16 18 19 20 20 19 9 15 20 8 8 12 14 14 11 11 11 10 9 9 9 9 8 8 9 10 10 11 10 10 9 8 7 6 5 4 4 4 4 5 6 6 7 8 9 12 13 13 12 11 11 13 14 15
17 17 11 15 12 14 15 16 13 14 15 11 12 2 2 3 4 0 3 11 13 16 7 7 7 10 14 12 12 13 14 14 16 15 13 14 16 18 12 18 16 9 9 14 13 12 10 10 10 10 8 8 6 5 5 7 9 10 11 11 10 10 9 9 7 6 5 3 3 3 4 5 6 7 8 8 10 12 12 12 11 12 11 13 15 16
16 17 13 14 14 13 15 15 14 14 12 10 6 5 3 4 7 6 5 12 6 6 3 3 8 9 10 11 12 13 11 12 14 13 11 13 15 18 16 19 11 11 17 13 13 12 12 10 9 10 9 7 7 7 7 8 11 11 11 11 10 9 8 7 5 4 2 2 2 3 3 4 6 7 8 9 10 10 12 12 12 11 11 13 14 15
17 12 13 14 15 14 14 14 15 10 11 9 12 1 3 3 7 4 6 6 7 6 5 7 8 9 10 10 10 10 11 13 13 12 14 16 18 18 16 12 7 7 9 12 13 13 11 10 7 6 7 6 6 6 8 10 11 11 11 10 9 8 6 5 4 2 1 2 2 2 3 4 6 7 7 8 9 10 11 11 11 11 12 14 14 14
10 11 12 16 14 15 16 13 11 10 9 13 7 4 1 4 5 7 12 7 6 10 10 5 9 9 8 10 8 10 10 13 16 18 15 14 10 10 6 6 10 8 10 10 9 8 8 8 7 7 7 6 6 7 8 10 11 11 10 9 8 7 5 5 4 2 2 0 2 3 4 4 5 7 7 7 8 8 9 10 11 11 12 13 13 14
12 10 11 12 13 13 14 15 12 12 3 2 9 13 5 4 9 13 7 11 14 13 10 10 10 9 9 11 10 11 14 17 19 18 15 10 7 8 11 4 6 4 5 10 9 6 6 5 6 5 4 5 6 8 9 11 11 11 10 9 8 7 5 5 3 2 2 2 2 3 3 5 5 5 6 7 7 8 9 9 10 11 13 12 13 16
11 10 11 12 9 9 9 13 11 12 2 1 1 8 3 4 6 7 11 14 14 14 15 13 11 9 10 11 12 15 17 18 18 17 14 12 9 11 8 10 7 3 4 6 7 7 5 6 7 7 7 6 7 8 10 12 13 11 10 8 8 5 5 4 3 3 2 1 2 3 4 5 5 5 5 6 7 9 9 8 8 12 12 13 14 15
10 10 10 11 6 12 12 11 9 5 2 5 8 8 5 7 11 13 12 12 11 11 13 12 12 10 9 11 13 15 16 17 18 16 12 11 10 8 5 3 4 9 7 10 8 8 7 5 6 7 6 6 7 9 11 12 12 11 10 8 6 5 4 4 3 2 2 2 3 3 4 5 5 5 6 7 8 8 9 9 8 11 12 12 12 13
6 10 8 13 6 6 8 9 10 13 14 13 13 15 15 12 11 11 7 10 10 9 9 10 12 13 11 13 14 14 15 15 17 15 9 8 10 11 9 10 12 10 9 6 6 6 5 5 5 5 7 5 8 10 11 12 11 11 10 8 7 6 6 5 4 3 2 2 2 2 4 4 5 6 6 7 8 8 8 10 10 11 11 12 12 13
14 13 10 8 11 11 15 16 14 15 16 17 15 13 13 13 7 4 7 10 10 8 8 8 12 13 12 12 13 14 13 14 15 12 7 6 8 11 14 12 7 6 6 6 5 6 4 4 5 5 6 7 9 10 11 11 11 11 9 8 7 6 5 4 4 3 1 2 3 3 5 5 7 6 7 9 8 7 7 8 9 10 11 12 11 12
13 11 11 10 9 11 11 8 12 13 13 14 15 15 10 10 1 3 4 4 9 13 10 11 11 12 12 13 14 14 16 14 14 8 4 6 12 14 12 8 8 7 7 6 6 5 4 4 6 6 6 7 8 10 11 11 10 10 8 7 6 6 5 4 3 2 1 1 3 3 4 6 6 7 8 8 7 6 6 8 7 8 8 8 12 12
10 5 5 10 11 11 13 15 15 17 18 18 16 13 3 5 4 3 5 10 13 10 9 9 11 10 10 12 12 12 13 13 8 4 7 10 11 9 9 7 7 6 6 6 6 5 5 3 7 7 8 8 7 10 10 11 10 11 9 7 7 6 5 3 3 2 3 1 2 4 5 5 3 6 7 8 8 6 5 8 7 5 6 7 5 9
13 8 10 7 11 14 17 17 18 20 19 20 17 7 4 7 6 7 5 9 15 13 9 9 8 9 12 12 12 12 9 5 2 4 9 13 13 9 9 5 6 5 6 7 5 3 4 6 6 6 6 7 8 9 11 10 9 10 12 9 6 6 5 4 4 2 2 2 3 5 5 5 6 6 7 8 8 7 6 4 3 3 5 3 4 5
13 14 14 14 12 12 12 13 11 10 7 9 8 6 2 6 6 8 8 9 12 13 8 10 10 10 11 7 7 8 4 4 7 8 9 6 8 8 7 6 5 7 8 4 4 5 5 3 2 4 7 8 9 9 11 11 10 9 9 7 7 6 5 5 4 3 2 2 3 5 6 6 6 7 7 8 9 8 7 5 9 1 2 5 6 7
13 15 13 13 11 10 11 13 10 11 14 13 11 10 11 12 9 11 11 10 9 11 7 9 10 11 9 5 6 9 11 10 12 11 8 8 6 2 3 3 4 4 3 4 6 6 2 3 6 7 8 10 10 10 10 11 10 9 10 8 7 6 6 5 3 1 2 2 3 3 5 6 6 7 7 8 9 9 8 8 2 12 9 1 6 8
Wind_Direction
150 233 211 221 228 207 200 245 354 9 350 356 309 334 272 285 272 47 155 182 98 275 258 255 246 253 245 240 220 192 195 214 225 223 221 225 230 232 226 225 235 237 240 229 204 203 187 188 181 180 178 177 176 176 175 175 175 180 170 168 161 147 160 202 144 71 32 21 44 44 48 11 26 20 17 47 48 11 40 0 2 352 356 10 353 336
241 244 233 238 47 21 73 347 316 318 320 279 279 265 268 248 252 278 50 93 177 259 264 260 259 253 245 241 243 215 197 210 221 228 230 230 231 233 239 243 241 236 231 232 228 197 193 186 182 179 183 180 184 183 180 183 183 181 181 179 159 159 151 134 107 123 109 43 35 14 39 11 23 22 14 6 31 21 68 26 36 348 0 336 316 293
217 237 247 119 97 81 82 298 285 272 263 245 257 254 241 253 250 108 174 169 253 218 263 263 260 250 253 249 246 253 230 212 209 224 234 239 239 236 237 239 239 239 240 234 225 188 190 185 184 182 184 184 191 185 187 187 190 185 184 188 159 167 156 142 151 169 116 109 65 39 53 26 29 62 37 29 47 39 351 36 0 352 347 344 327 303
226 230 145 127 96 163 219 245 242 230 243 253 225 240 251 278 305 218 176 232 201 255 273 266 260 254 240 244 247 240 239 241 228 217 226 237 244 240 237 237 244 246 243 240 200 179 191 189 188 184 184 185 187 191 189 190 193 192 185 189 174 161 164 145 141 120 115 112 134 116 101 101 38 57 108 125 116 54 28 340 359 12 357 336 312 316
266 96 107 101 147 178 218 214 225 231 237 221 256 269 271 264 236 259 56 223 205 242 254 268 268 263 249 238 232 235 238 238 236 237 232 229 234 244 250 256 257 252 229 227 179 187 195 192 192 188 186 184 187 194 195 187 195 196 190 184 171 167 168 150 145 153 161 162 187 173 173 183 171 162 71 60 42 13 358 308 8 19 337 315 313 311
229 118 114 186 167 203 231 218 216 249 251 246 206 231 270 308 304 273 229 238 239 244 203 233 251 253 225 225 232 227 215 225 229 234 234 230 226 228 235 238 235 232 237 216 208 197 193 191 189 191 188 187 189 193 196 188 195 196 190 183 175 173 166 153 152 155 179 161 142 172 163 130 59 93 65 51 28 11 17 358 28 279 325 312 305 302
67 145 215 194 215 220 232 242 218 205 262 256 282 177 219 264 282 256 246 234 240 264 165 197 268 298 78 226 202 220 200 213 226 238 241 233 228 230 229 222 216 213 207 216 218 197 189 189 190 189 189 190 190 193 191 192 194 197 195 183 180 176 169 158 153 154 169 175 154 144 131 102 65 85 100 79 104 101 28 96 346 319 281 280 290 291
186 158 173 203 224 232 228 225 235 245 240 252 92 175 214 240 236 238 245 243 270 313 158 208 248 276 278 260 226 183 204 211 210 217 225 226 221 224 216 209 205 204 205 197 209 203 190 188 190 188 187 187 189 187 188 191 191 195 197 184 181 182 170 163 157 163 178 177 157 154 160 161 142 85 110 147 139 137 155 32 350 295 300 298 273 292
177 170 197 199 231 234 228 232 272 193 233 43 263 236 212 240 232 235 235 244 246 249 274 221 211 246 253 254 170 166 209 215 222 209 208 216 215 211 213 209 202 202 200 192 197 204 194 189 186 185 183 185 187 188 184 186 188 188 192 185 182 185 170 165 165 162 168 181 156 179 172 166 132 152 156 164 156 141 109 199 94 310 298 249 293 286
174 205 189 233 221 223 227 243 145 196 234 165 241 217 275 237 240 244 247 247 255 264 254 252 201 249 251 235 186 198 237 234 219 218 207 207 215 209 204 210 213 201 199 191 195 196 196 187 182 182 180 185 188 181 178 183 183 184 184 183 184 184 178 167 169 168 162 159 176 182 158 164 155 163 151 211 114 193 203 185 212 267 250 303 244 265
52 158 302 226 225 242 278 23 111 205 232 34 244 252 222 228 230 225 248 266 274 253 240 245 231 219 255 252 263 188 195 220 218 209 207 199 204 206 202 206 206 206 195 196 194 189 190 184 181 181 186 186 174 167 182 182 181 179 181 184 188 187 185 172 173 174 164 168 180 177 165 168 161 160 173 181 170 185 237 251 224 242 294 286 287 268
204 192 203 221 241 253 251 210 213 235 242 223 230 233 237 222 227 237 238 242 253 249 249 240 231 204 246 243 235 271 97 184 231 255 219 197 198 202 198 206 209 208 205 195 198 189 185 179 187 182 185 176 172 177 184 179 178 179 183 187 191 189 188 175 178 175 171 171 176 166 167 171 170 173 178 184 177 183 208 243 248 234 253 237 263 259
220 214 208 211 206 232 206 242 202 208 217 223 234 238 240 249 224 240 224 233 234 247 251 254 197 209 236 270 307 340 202 206 215 250 231 199 199 202 208 210 217 216 216 205 200 199 192 191 183 178 188 180 181 187 185 180 179 181 184 188 192 191 188 180 179 179 175 175 174 172 174 176 171 187 184 180 190 181 206 214 224 271 267 257 257 254
228 224 208 212 194 198 232 230 212 206 203 223 232 229 236 248 252 248 248 240 243 230 235 248 212 241 267 266 250 256 214 202 202 228 245 199 202 204 211 208 209 216 220 221 210 206 197 200 193 193 195 191 188 191 186 182 180 182 186 189 194 193 187 183 183 183 181 182 180 176 180 180 177 184 187 201 191 193 223 215 222 234 248 267 264 272
267 234 211 206 212 180 228 232 254 255 216 232 237 240 246 257 263 266 266 272 276 302 37 115 231 237 232 217 252 232 239 211 203 209 212 217 215 219 228 239 228 211 212 219 220 216 203 193 193 197 198 196 191 196 193 187 184 183 186 188 193 193 188 187 185 185 184 182 180 176 182 181 187 185 188 201 194 196 211 222 238 245 251 252 257 256
274 279 305 188 241 184 224 226 243 267 262 230 233 257 257 246 250 269 298 300 302 311 278 211 226 231 222 272 203 261 213 220 216 209 207 201 210 212 217 223 237 239 221 214 218 213 204 193 192 198 199 201 197 196 193 195 185 184 185 187 191 195 187 187 186 189 186 185 178 180 178 184 184 190 191 197 188 206 207 236 245 250 253 264 269 266
255 254 292 169 175 224 241 235 232 234 257 266 251 237 248 268 267 264 256 257 275 266 261 267 246 233 264 268 262 237 229 235 223 219 211 211 204 206 213 216 220 230 230 223 221 217 209 198 190 195 196 200 202 197 198 194 187 181 178 181 185 193 187 185 186 190 189 185 181 178 178 180 181 189 197 200 195 200 217 243 250 255 264 274 274 277
277 278 272 244 236 217 238 259 274 248 251 263 251 259 282 278 286 273 269 271 256 260 266 260 256 260 248 263 254 250 233 235 242 228 225 217 213 207 208 214 220 222 227 224 220 219 212 204 191 194 197 199 203 211 194 188 187 184 176 176 182 187 188 185 187 191 188 185 181 178 181 182 182 187 193 203 202 206 224 227 240 245 251 254 264 274
287 274 261 251 256 265 265 262 257 251 252 258 267 287 270 253 244 232 261 259 259 258 269 245 248 249 253 262 254 257 249 236 233 235 230 224 216 218 213 213 216 223 222 222 217 213 211 202 199 198 202 204 206 209 177 168 188 196 176 177 182 186 188 183 183 185 185 184 183 180 181 180 182 188 192 199 204 216 226 232 244 259 265 275 276 272
252 270 273 268 267 263 253 238 250 256 233 245 265 265 257 269 262 268 252 264 264 269 262 263 262 264 253 265 259 263 272 251 232 241 243 241 228 219 225 222 216 215 216 215 216 210 206 205 204 203 205 210 213 189 152 171 179 182 176 174 179 184 181 176 181 183 185 185 183 177 178 180 187 191 196 199 205 217 226 234 239 246 256 261 270 272
276 265 276 278 289 282 245 223 253 261 267 248 236 244 252 248 273 285 279 254 255 262 262 277 273 262 261 267 259 252 263 283 263 224 226 239 242 226 227 228 225 218 211 215 216 211 204 204 204 210 211 208 207 145 155 166 176 176 173 176 177 179 177 178 181 184 184 183 180 175 179 179 187 195 198 207 213 224 231 237 240 240 250 256 261 277
268 260 265 281 269 255 256 245 261 270 274 271 282 280 271 263 249 243 250 243 249 250 264 268 268 274 274 271 260 275 283 269 267 272 256 239 235 239 232 225 213 223 214 212 215 217 217 209 204 209 216 216 212 166 170 172 175 178 175 172 174 177 180 178 181 184 184 184 179 178 181 181 188 196 208 210 217 226 232 235 237 244 261 277 283 283
325 305 278 271 265 268 274 280 279 280 275 275 274 270 271 276 280 268 268 268 273 267 274 267 276 266 273 290 293 293 283 273 275 276 275 258 241 237 235 225 219 216 221 214 212 216 216 220 214 216 216 211 175 172 174 169 180 177 173 169 171 177 179 178 182 185 185 184 181 183 182 187 194 200 208 217 226 233 237 241 244 251 262 270 281 277
353 255 266 263 269 263 262 260 258 258 263 266 255 251 253 257 266 276 278 293 288 284 273 266 258 272 276 283 283 279 271 276 284 274 268 270 266 242 239 235 228 222 220 221 221 219 217 219 219 230 219 168 175 185 173 172 179 169 171 175 173 178 178 179 183 184 183 183 184 183 188 192 199 204 211 221 229 237 240 246 252 262 274 278 275 275
309 231 269 281 278 274 264 250 247 240 242 248 268 283 299 294 287 291 298 286 270 258 261 264 265 266 286 298 295 299 314 300 285 283 294 285 260 239 241 240 239 235 227 226 226 219 215 215 219 215 213 185 199 195 173 175 175 170 169 177 174 175 181 181 180 184 182 183 184 186 194 198 204 211 216 226 238 246 251 257 263 270 277 279 276 275
277 281 281 273 276 278 272 262 266 294 297 313 310 292 276 275 277 280 268 268 265 264 263 262 270 275 286 290 294 300 308 307 304 298 286 280 279 267 253 245 242 240 234 230 226 226 219 214 214 218 215 213 218 213 186 185 174 167 166 170 169 172 178 179 179 182 185 186 186 190 198 203 211 219 227 235 242 249 259 268 272 275 275 277 281 280
270 274 263 258 264 265 271 285 300 318 294 284 289 291 280 258 255 267 276 269 262 269 271 268 275 286 285 287 287 290 290 287 289 293 291 308 317 322 320 289 253 240 237 230 226 221 218 214 213 216 217 223 227 216 180 183 175 166 160 163 170 171 174 175 176 183 190 187 189 199 202 208 214 222 232 241 251 258 261 267 273 281 283 284 282 278
263 264 254 257 258 263 273 276 283 286 280 278 274 270 273 275 275 266 260 266 279 286 273 273 277 281 284 289 289 291 292 292 288 283 286 278 288 308 299 297 322 293 248 230 227 220 218 214 212 211 216 218 220 198 183 184 179 162 158 163 170 168 170 169 177 181 184 187 196 206 208 214 220 228 238 247 255 260 270 278 282 284 285 284 282 280
258 259 257 259 260 265 269 276 281 281 278 277 275 274 272 272 270 268 264 267 274 271 275 289 291 285 282 281 284 284 285 283 284 285 285 284 278 273 275 282 287 296 295 254 236 240 217 216 212 208 205 221 200 191 187 181 172 158 160 165 167 165 168 168 176 179 184 188 196 201 206 211 222 233 239 243 250 265 279 289 290 287 286 283 280 278
243 252 264 262 269 268 266 268 272 276 278 276 272 270 267 265 264 264 267 267 266 267 272 275 278 278 277 277 278 281 283 283 284 285 280 275 269 258 265 267 264 274 280 298 270 232 221 219 215 207 218 204 189 185 182 179 170 166 164 166 164 165 166 169 175 181 185 190 194 197 206 213 216 225 237 247 260 277 286 285 285 285 286 285 284 283
248 259 260 269 273 271 270 273 272 267 267 267 267 266 263 264 269 270 270 270 274 274 269 268 273 275 272 271 274 277 279 282 282 276 273 268 267 265 255 247 243 243 257 265 281 279 241 219 215 221 215 181 188 184 188 181 175 174 169 164 164 168 169 171 175 182 186 191 194 194 204 219 230 236 243 256 282 288 286 282 284 286 285 285 285 285
250 270 272 268 270 269 266 266 267 268 268 267 266 261 262 267 267 264 262 263 261 262 268 270 262 263 268 271 274 275 278 278 275 274 274 269 264 263 259 255 251 247 251 247 246 272 266 246 245 214 187 174 189 190 188 180 186 171 176 166 169 169 171 171 175 180 182 192 190 198 213 223 230 238 253 271 282 281 280 284 284 284 286 289 292 291
253 262 262 263 265 266 271 272 274 282 282 273 257 259 270 262 258 262 263 260 255 254 254 258 258 260 270 277 278 279 279 280 277 276 276 276 274 267 259 252 249 238 239 241 230 237 258 244 215 191 174 186 194 188 186 180 194 179 180 169 173 168 173 168 175 180 185 188 196 202 214 231 242 255 266 275 291 294 287 283 282 285 288 291 293 293
259 259 260 258 263 269 273 275 278 269 257 251 274 269 254 264 258 256 256 257 257 252 256 258 266 268 270 274 276 279 280 277 281 282 284 291 292 291 288 265 255 244 231 234 228 222 226 231 189 187 182 184 174 185 186 185 193 177 176 170 175 169 168 173 177 187 182 185 195 205 216 234 246 255 265 284 290 282 278 280 282 286 290 294 292 291
258 257 260 259 262 265 270 270 263 250 249 270 276 268 268 266 272 271 267 261 262 261 263 269 272 277 277 281 289 292 303 313 308 309 308 295 282 273 286 288 276 277 273 246 236 239 217 195 183 161 162 170 165 169 169 164 177 169 174 173 174 166 174 181 182 184 181 187 193 211 225 239 248 263 285 291 287 281 281 282 286 288 295 297 293 291
249 249 255 255 260 267 264 257 257 249 263 271 273 281 282 279 273 276 271 269 272 274 275 275 277 278 283 292 295 302 311 311 302 287 280 277 286 281 256 273 263 246 247 268 234 221 191 174 151 149 159 179 163 164 183 183 178 179 179 174 170 171 177 184 183 182 183 181 195 217 229 246 255 269 274 277 280 282 282 285 288 296 296 293 292 291
245 251 250 256 248 256 258 259 261 284 281 272 272 270 273 283 292 292 285 280 278 285 281 277 284 293 306 313 318 323 321 306 290 282 273 273 270 280 252 250 267 262 235 215 202 165 156 151 157 161 165 164 177 183 191 186 184 184 178 172 173 177 177 182 184 190 162 184 215 215 238 253 265 271 271 276 281 283 287 290 294 298 297 294 293 293
241 244 248 255 250 255 262 267 266 259 258 258 270 92 30 10 356 151 292 282 268 265 293 342 332 310 303 311 319 320 310 300 288 282 289 301 294 265 266 274 256 248 258 201 167 142 150 155 154 144 164 169 178 188 191 184 180 182 175 176 178 179 179 179 189 185 176 188 200 229 248 265 273 275 280 282 282 287 291 293 294 295 298 297 298 298
252 254 252 249 256 253 253 258 257 262 265 281 312 129 351 60 335 348 295 276 314 355 357 323 311 302 303 311 315 315 305 293 287 297 317 316 314 319 285 261 283 247 220 175 152 152 165 160 161 158 159 170 175 184 205 194 178 182 175 180 182 181 190 194 192 162 165 173 233 263 272 282 284 285 289 288 291 292 291 293 295 301 300 299 299 298
259 251 249 250 253 253 263 260 265 262 279 285 290 275 130 200 168 214 276 279 48 309 292 332 316 310 311 311 309 301 295 289 297 308 317 316 313 301 278 261 273 227 163 179 175 182 159 146 153 163 160 170 189 186 199 186 176 179 176 180 184 181 185 171 141 114 118 205 224 256 265 255 263 271 280 289 292 291 291 295 298 301 305 303 302 302
258 256 249 254 255 252 248 259 266 277 279 291 310 345 299 340 320 284 267 310 353 316 319 335 294 314 312 308 308 294 291 293 300 305 313 308 310 289 229 131 245 246 186 173 166 117 155 169 181 176 174 179 181 187 191 179 177 177 178 177 180 172 169 142 138 153 144 278 253 253 253 279 285 288 288 287 289 294 296 298 303 308 306 306 304 304
261 264 262 266 253 253 257 260 262 273 284 4 27 330 342 300 252 262 318 330 316 304 312 318 312 312 314 302 302 293 295 296 296 296 304 298 229 270 257 270 260 279 287 82 91 160 208 160 144 147 161 159 179 183 184 178 176 178 177 170 169 182 150 139 142 138 182 209 250 274 287 281 286 288 287 286 288 291 296 303 306 306 310 308 307 307
269 268 266 259 261 261 269 267 267 266 102 276 333 266 130 248 292 321 307 301 300 313 312 313 310 310 314 307 302 299 296 297 296 299 306 309 274 237 225 218 152 161 186 148 186 187 176 162 172 179 176 166 192 186 181 178 173 179 167 168 167 153 143 127 152 163 172 228 257 263 261 277 280 284 287 288 291 296 300 314 322 311 309 307 307 307
277 266 260 264 260 268 259 260 265 311 330 235 285 281 264 268 288 297 303 299 312 308 300 300 299 312 311 301 299 297 296 296 293 294 309 322 305 261 267 260 151 189 184 188 184 155 191 188 169 155 168 177 181 185 179 176 174 178 171 172 171 154 153 151 145 127 193 219 260 268 284 286 290 295 293 297 301 297 304 311 315 309 308 309 305 306
230 256 266 275 274 260 271 274 296 304 300 300 292 290 293 308 305 302 296 287 293 298 308 307 306 301 309 305 302 302 297 293 290 294 303 322 294 287 257 211 191 176 176 168 148 136 177 187 169 156 163 169 185 182 176 174 177 164 183 176 142 168 173 158 151 159 207 263 292 311 301 303 310 303 302 307 298 301 313 309 310 313 318 315 308 304
279 273 275 273 267 270 265 268 280 278 278 282 281 286 286 278 290 7 319 301 303 301 302 302 300 308 311 310 306 299 294 293 290 295 325 323 275 237 227 212 183 165 149 151 151 166 205 135 138 178 178 175 186 181 174 175 184 175 180 166 162 180 162 162 159 147 292 2 336 344 313 329 312 308 317 302 296 304 314 312 313 317 320 319 311 304
266 279 275 266 298 304 268 257 265 282 302 298 296 293 309 63 51 264 277 292 294 299 313 313 314 320 323 319 305 297 295 290 284 276 279 266 267 254 227 186 171 167 158 143 121 151 180 173 167 174 185 177 185 181 171 178 184 167 185 135 157 170 164 150 139 146 125 29 340 359 344 330 330 326 306 297 303 310 316 314 315 321 323 321 320 314
280 77 277 257 259 247 267 280 283 283 279 282 276 274 293 302 322 356 336 317 296 293 303 317 325 320 331 311 304 296 289 293 289 287 265 255 256 248 248 197 171 154 136 135 149 166 155 163 226 168 185 177 179 186 175 176 187 161 155 156 175 167 156 138 117 108 80 39 32 7 355 340 328 294 315 320 316 310 313 310 317 322 320 320 322 319
290 281 275 265 265 262 261 264 266 270 274 278 280 306 33 324 340 332 312 275 281 295 319 331 327 327 318 309 308 290 280 288 222 237 248 259 247 231 227 191 174 155 153 146 137 190 222 155 210 155 181 166 164 190 175 182 177 178 141 163 163 163 154 127 147 156 94 51 57 22 357 327 332 336 331 324 317 318 312 329 333 309 309 317 323 317
274 261 272 266 261 265 272 277 290 281 273 278 274 290 76 292 317 302 297 287 305 302 320 321 323 327 320 310 317 323 341 310 276 263 263 283 261 213 192 180 177 183 163 152 178 153 136 152 216 177 167 162 163 188 174 174 183 172 152 170 163 161 147 166 174 157 103 47 45 38 354 332 328 340 333 330 327 323 320 144 179 267 345 337 324 293
266 270 272 274 279 269 260 256 252 284 298 290 296 302 312 317 304 301 303 306 286 288 321 324 326 329 331 342 327 327 323 320 307 293 302 309 303 260 246 219 182 178 149 169 181 181 152 123 173 181 172 162 164 179 175 168 192 156 162 158 165 163 172 183 183 110 84 43 27 56 331 326 330 339 332 332 332 330 325 321 311 154 166 279 316 299